Showing default

MANDRAKE 2 BAKER, 48908

Orbit data source: Space-Track

MANDRAKE 2 BAKER, 48908 is an American payload satellite in SSO that was launched on Wed, 30 Jun 2021 UTC via an FALCON 9 launch vehicle from the Air Force Eastern Test Range (AFETR). Payloads include a variety of satellites, spacecraft, and rockets equipped with specific instruments for various scientific and technological missions. These include communications satellites like Starlink; space stations such as the ISS; scientific satellites like the Hubble; Earth observation satellites from companies like Planet Labs, Umbra, and HawkEye 360; GPS; miniature CubeSats for education and research; and military/defense satellites.

Loading next visibility...
MANDRAKE 2 BAKER details
Identifier
48908, 2021-059AF
Orbit
SSO
Last TLE update10 hours ago
Origin
Flag of USSDA/DARPA2 (US)
ManufacturerAstro Digital
MissionOperational Defense Communications
Bus & MotorCORVUS-XL, Unknown motor
Mass23 kg wet, 23 kg dry
Launch date (UTC)
2021-06-30 (4 years ago)
Launch vehicle
FALCON 9
Launch site
Air Force Eastern Test Range (AFETR)
Object type
Payload
Rocket body
Debris
Shape & HBRBox + 1 Pan, 0.5 m
Radar Cross Section0.375 m², Medium (>0.1 m² and < 1m²)

Expand to show TLE details & history

TLE from 10 hours ago
0 MANDRAKE 2 BAKER
1 48908U 21059AF  25014.88348523  .00016982  00000-0  50901-3 0  9993
2 48908  97.6702 170.7064 0007073  58.4080 301.7852 15.34544196197194
Epoch: 2025-01-14T21:12Z
Definitive object data (Epoch: 2025-01-14T21:12:13.123Z)
Latitude-0.00003°
Longitude98.06794°
Altitude462.83 km
Speed7.637 km/s
True Right ascension11h 22m 49s
True Declination0° 00' 00"
Sunlit
Object was in full shadow at TLE epoch
Visualization TLE readout
Latitude0.59567°
Longitude-81.41198°
Altitude467.849 km
Speed7.631 km/s
Apparent Right ascension22h 01m 21s
Apparent Declination-20° 35' 53"
Sunlit
Object is in daylight
Visualization observer readout
Local Sidereal Time08:01:50
Azimuth298.287° NW
Elevation-58.022°
Doppler factor1
Orbital elements
Apogee altitude464.069 km
Perigee altitude454.397 km
Semi-major axis6,837.37 km
Eccentricity0.0007073
Inclination97.6702°
RAAN170.7064°
Arg. of periapsis58.408°
True anomaly301.71627°
Mean anomaly301.7852°
Eccentric anomaly301.75074°
Mean motion3.83892 °/min
BSTAR0.00050901
Orbital period93.78 mins
Loading maneuver chart data...
Loading historical data...
Loading historical data...
Loading historical data...
Loading historical data...
Loading historical data...
Loading historical data...
Loading historical data...

MANDRAKE 2 BAKER Visibility forecast

Observer location: undefined°, undefined

Span
Click to sort rows by Start time (UTC) header in descending order
Start Az.
Max El. time (UTC)
Max El. Az.
Max El.
End time (UTC)
End Az.
6 mins2025-01-15 09:51:18.296Z140.417° SSE2025-01-15 09:54:18.296Z68.62° E31.48°2025-01-15 09:57:18.296Z4.734° NNE
6 mins2025-01-15 22:48:18.296Z27.998° NE2025-01-15 22:51:18.296Z109.446° ESE34.991°2025-01-15 22:54:18.296Z173.26° S
|